Location: Ostrava
(49.8330°N, 18.2830°E)
Time: 06:55:09
(UTC+02:00)

Cosmos 2221 - Visible Passes

Search period start: 26 August 2016 00:00
Search period end: 05 September 2016 00:00
Orbit: 595 x 616 km, 82.5° (Epoch: 24 August)

Date Brightness Start Highest point End Pass type
(mag) Time Alt. Az. Time Alt. Az. Time Alt. Az.
26 Aug 5.1 00:10:59 12° ENE 00:10:59 12° ENE 00:11:52 10° NE visible
26 Aug 3.5 01:47:52 45° N 01:47:52 45° N 01:51:01 10° N visible
27 Aug 4.8 00:24:13 18° ENE 00:24:13 18° ENE 00:25:55 10° NE visible
27 Aug 3.8 02:01:06 35° NNW 02:01:06 35° NNW 02:04:08 10° N visible
28 Aug 4.5 00:37:26 24° NE 00:37:26 24° NE 00:39:34 10° NNE visible
28 Aug 4.2 02:14:19 26° NW 02:14:19 26° NW 02:17:06 10° N visible
29 Aug 4.3 00:50:39 29° NNE 00:50:39 29° NNE 00:53:01 10° NNE visible
29 Aug 4.6 02:27:32 19° NW 02:27:32 19° NW 02:29:53 10° NNW visible
30 Aug 4.2 01:03:51 33° NNE 01:03:51 33° NNE 01:06:19 10° N visible
30 Aug 5.0 02:40:44 13° NW 02:40:44 13° NW 02:42:17 10° NNW visible
30 Aug 5.2 23:40:10 12° NE 23:40:10 12° NE 23:40:43 10° NE visible
31 Aug 4.2 01:17:03 31° N 01:17:03 31° N 01:19:31 10° N visible
31 Aug 4.9 23:53:21 16° NE 23:53:21 16° NE 23:54:35 10° NNE visible
01 Sep 4.4 01:30:14 26° NNW 01:30:14 26° NNW 01:32:35 10° N visible
02 Sep 4.7 00:06:32 21° NE 00:06:32 21° NE 00:08:10 10° NNE visible
02 Sep 4.7 01:43:25 21° NW 01:43:25 21° NW 01:45:29 10° NNW visible
03 Sep 4.6 00:19:42 24° NNE 00:19:42 24° NNE 00:21:33 10° NNE visible
03 Sep 5.0 01:56:35 15° NW 01:56:35 15° NW 01:58:11 10° NNW visible
04 Sep 4.6 00:32:52 26° N 00:32:52 26° N 00:34:49 10° N visible
04 Sep 5.3 02:09:45 11° NW 02:09:45 11° NW 02:10:16 10° NW visible
04 Sep 5.2 23:09:09 11° NE 23:09:09 11° NE 23:09:29 10° NE visible
